Regional Weather Roundup
Issued by NWS

Home | Current Version | Previous Version | Graphics & Text | Print | Product List | Glossary On
Versions: 1 2 3 4 5 6 7 8 9 10 11 12 13 14 15 16 17 18 19 20 21 22 23 24 25 26 27 28 29 30 31 32 33 34 35 36 37 38 39 40 41 42 43 44 45 46 47 48 49 50
000
ASUS43 KIND 242109
RWRIN

WEATHER ROUNDUP FOR INDIANA
NATIONAL WEATHER SERVICE INDIANAPOLIS IN
400 PM EST SAT JAN 24 2015

NOTE: "FAIR" INDICATES FEW OR NO CLOUDS BELOW 12,000 FEET WITH NO
SIGNIFICANT WEATHER AND/OR OBSTRUCTIONS TO VISIBILITY.

* - STATION DOES NOT REPORT WEATHER SUCH AS PRECIPITATION OR FOG.

+ - STATION NOT QUALITY CONTROLLED BY THE NATIONAL WEATHER SERVICE.
    USE DATA WITH CAUTION...ESPECIALLY DEWPOINT AND RELATIVE
    HUMIDITY OBSERVATIONS.

INZ001>003-010>013-019-020-242200-
NORTHWEST INDIANA

CITY           SKY/WX    TMP DP  RH WIND       PRES   REMARKS
GARY /AIRPORT/ MOSUNNY   45  28  53 W15       29.64F
KNOX *+        MOSUNNY   40  22  47 W13       29.64S
LA PORTE +     CLOUDY    43  32  64 W5        29.63F
MICHIGAN CITY+ CLOUDY    41  27  56 W6        29.64S
MONTICELLO +   PTSUNNY   41  34  77 W10G18    29.67R
RENSSELAER +   PTSUNNY   41  37  87 W9        29.66S
VALPARAISO     PTSUNNY   41  31  67 W14       29.64S

$$

LMZ046-743>745-242200-
SOUTHERN LAKE MICHIGAN

STATION/POSITION TIME  TEMP WIND        PRES
                       AIR  DIR/SP/G
                 (UTC) (F)  (DEG/KT/KT) (MB)
MICHIGAN CITY    2100   37  240/ 10/ 11   N/A

$$

INZ004-005-014>016-021>024-242200-
NORTH CENTRAL INDIANA

CITY           SKY/WX    TMP DP  RH WIND       PRES   REMARKS
ELKHART        CLOUDY    39  28  65 W9        29.63
GOSHEN         CLOUDY    40  30  67 W13       29.63R
LOGANSPORT +   MOSUNNY   41  34  75 W13       29.67R
PERU/GRISSOM   PTSUNNY   40  33  76 W12       29.66R
ROCHESTER +    SUNNY     43  34  70 W14       29.65R
SOUTH BEND     CLOUDY    40  30  67 W8        29.64S
WARSAW +       MOSUNNY   39  32  75 W14       29.64R

$$

INZ006>009-017-018-025>027-242200-
NORTHEAST INDIANA

CITY           SKY/WX    TMP DP  RH WIND       PRES   REMARKS
ANGOLA *+      CLOUDY    36  25  64 NW9       29.61R
AUBURN +       CLOUDY    36  30  80 W10G16    29.63S
FORT WAYNE     CLOUDY    37  30  75 W13       29.65R
HUNTINGTON +   CLOUDY    38  28  68 W6        29.64S

$$

INZ028-029-035-036-043>045-051>053-242200-
WEST CENTRAL INDIANA

CITY           SKY/WX    TMP DP  RH WIND       PRES   REMARKS
GREENCASTLE +  SUNNY     41  28  60 W6        29.71S
LAFAYETTE      MOSUNNY   43  33  68 W10       29.68R
TERRE HAUTE    SUNNY     45  33  63 W8        29.73F

$$

INZ030>032-037>040-046>048-054>057-064-065-242200-
CENTRAL INDIANA

CITY           SKY/WX    TMP DP  RH WIND       PRES   REMARKS
ANDERSON       PTSUNNY   37  30  75 SW10      29.68F
CP ATTERBURY + MOSUNNY   41  30  65 SW8       29.72F
GREENWOOD *+   MOSUNNY   39  28  65 W10       29.71
INDIANAPOLIS   MOSUNNY   39  29  67 W13       29.70S
-EAGLE CREEK   SUNNY     40  29  64 W13       29.69F
KOKOMO *+      PTSUNNY   39  32  75 W14       29.67R
MARION +       PTSUNNY   37  31  81 W12       29.67S
MT COMFORT *+  MOSUNNY   41  23  48 W12       29.69F
SHELBYVILLE    MOSUNNY   40  30  67 W13       29.70F
ZIONSVILLE +   MOSUNNY   40  30  65 W12       29.69S

$$

INZ033-034-041-042-049-050-058-059-242200-
EAST CENTRAL INDIANA

CITY           SKY/WX    TMP DP  RH WIND       PRES   REMARKS
MUNCIE         PTSUNNY   37  30  75 W13       29.67R

$$

INZ060-061-067>069-081>083-085>088-242200-
SOUTHWEST INDIANA

CITY           SKY/WX    TMP DP  RH WIND       PRES   REMARKS
EVANSVILLE     SUNNY     49  32  52 W13       29.81F
HUNTINGBURG *+ SUNNY     45  32  61 W12       29.79F
WASHINGTON +   SUNNY     44  30  58 SW10      29.77S

$$

INZ062-063-066-070>080-084-089>092-242200-
SOUTH CENTRAL AND SOUTHEAST INDIANA

CITY           SKY/WX    TMP DP  RH WIND       PRES   REMARKS
BLOOMINGTON    SUNNY     41  31  67 W8        29.73F
NORTH VERNON + CLOUDY    39  30  70 W8        29.74
SEYMOUR +      MOSUNNY   43  30  61 W9        29.75F

$$




USA.gov is the U.S. government's official web portal to all federal, state and local government web resources and services.